When you browse on this site, cookies collect data to enhance your experience and personalize the content and advertising you see.
Visit our Privacy Policy to learn more. By continuing to use the site, you agree to this use of cookies and data.
  • In France
  • List of Countries
  • For 7 days
  • Water Temperature
  • Satellite Maps
  • Weather Map
  • Weather Widgets
  • user-avatar
    Login

    Hourly Weather Tarija

    Today, 23 May, Thursday

    Time Temperature Precipitation Wind Pressure Humidity
    00:00 +12°C° 0 mm 2 mps 598 mmHg 84%
    01:00 +10°C° 0 mm 2 mps 598 mmHg 85%
    02:00 +10°C° 0 mm 2 mps 597 mmHg 86%
    03:00 +10°C° 0 mm 2 mps 597 mmHg 83%
    04:00 +10°C° 0 mm 2 mps 597 mmHg 81%
    05:00 +9°C° 0 mm 2 mps 597 mmHg 79%
    06:00 +10°C° 0 mm 2 mps 598 mmHg 74%
    07:00 +10°C° 0 mm 2 mps 598 mmHg 69%
    08:00 +12°C° 0 mm 2 mps 599 mmHg 64%
    09:00 +13°C° 0 mm 3 mps 599 mmHg 57%
    10:00 +14°C° 0 mm 3 mps 600 mmHg 50%
    11:00 +17°C° 0 mm 4 mps 601 mmHg 44%
    12:00 +17°C° 0 mm 4 mps 600 mmHg 45%
    13:00 +17°C° 0 mm 4 mps 599 mmHg 47%
    14:00 +16°C° 0 mm 5 mps 599 mmHg 49%
    15:00 +14°C° 0 mm 4 mps 598 mmHg 53%
    16:00 +13°C° 0 mm 3 mps 598 mmHg 58%
    17:00 +12°C° 0 mm 3 mps 597 mmHg 63%
    18:00 +10°C° 0 mm 2 mps 597 mmHg 69%
    19:00 +9°C° 0 mm 2 mps 597 mmHg 75%
    20:00 +9°C° 0 mm 1 mps 598 mmHg 81%
    21:00 +9°C° 0 mm 1 mps 598 mmHg 79%
    22:00 +8°C° 0 mm 1 mps 598 mmHg 78%
    23:00 +8°C° 0 mm 1 mps 598 mmHg 77%

    Tomorrow, 24 May, Friday

    Time Temperature Precipitation Wind Pressure Humidity
    00:00 +8°C° 0 mm 1 mps 598 mmHg 74%
    01:00 +8°C° 0 mm 1 mps 598 mmHg 71%
    02:00 +8°C° 0 mm 1 mps 597 mmHg 68%
    03:00 +8°C° 0 mm 1 mps 597 mmHg 64%
    04:00 +8°C° 0 mm 1 mps 597 mmHg 60%
    05:00 +8°C° 0 mm 1 mps 597 mmHg 56%
    06:00 +9°C° 0 mm 1 mps 598 mmHg 49%
    07:00 +11°C° 0 mm 1 mps 599 mmHg 41%
    08:00 +13°C° 0 mm 1 mps 600 mmHg 34%
    09:00 +15°C° 0 mm 2 mps 600 mmHg 28%
    10:00 +18°C° 0 mm 2 mps 601 mmHg 22%
    11:00 +20°C° 0 mm 2 mps 602 mmHg 16%
    12:00 +21°C° 0 mm 3 mps 601 mmHg 16%
    13:00 +21°C° 0 mm 3 mps 600 mmHg 17%
    14:00 +22°C° 0 mm 3 mps 600 mmHg 17%
    15:00 +21°C° 0 mm 3 mps 599 mmHg 22%
    16:00 +20°C° 0 mm 3 mps 598 mmHg 28%
    17:00 +18°C° 0 mm 3 mps 598 mmHg 33%
    18:00 +16°C° 0 mm 3 mps 597 mmHg 38%
    19:00 +13°C° 0 mm 3 mps 597 mmHg 43%
    20:00 +11°C° 0 mm 3 mps 596 mmHg 49%
    21:00 +11°C° 0 mm 3 mps 596 mmHg 49%
    22:00 +11°C° 0 mm 3 mps 596 mmHg 50%
    23:00 +11°C° 0 mm 3 mps 596 mmHg 51%

    Day after tomorrow, 25 May, Saturday

    Time Temperature Precipitation Wind Pressure Humidity
    00:00 +11°C° 0 mm 3 mps 596 mmHg 46%
    01:00 +11°C° 0 mm 3 mps 596 mmHg 42%
    02:00 +11°C° 0 mm 3 mps 595 mmHg 37%
    03:00 +11°C° 0 mm 3 mps 595 mmHg 29%
    04:00 +11°C° 0 mm 3 mps 595 mmHg 21%
    05:00 +11°C° 0 mm 4 mps 595 mmHg 13%
    06:00 +12°C° 0 mm 4 mps 595 mmHg 13%
    07:00 +13°C° 0 mm 4 mps 596 mmHg 13%
    08:00 +14°C° 0 mm 4 mps 597 mmHg 12%
    09:00 +18°C° 0 mm 3 mps 598 mmHg 11%
    10:00 +21°C° 0 mm 3 mps 599 mmHg 9%
    11:00 +25°C° 0 mm 3 mps 599 mmHg 8%
    12:00 +26°C° 0 mm 3 mps 599 mmHg 8%
    13:00 +27°C° 0 mm 3 mps 598 mmHg 8%
    14:00 +28°C° 0 mm 3 mps 597 mmHg 9%
    15:00 +26°C° 0 mm 3 mps 597 mmHg 16%
    16:00 +25°C° 0 mm 3 mps 596 mmHg 23%
    17:00 +22°C° 0 mm 3 mps 595 mmHg 30%
    18:00 +20°C° 0 mm 3 mps 595 mmHg 36%
    19:00 +18°C° 0 mm 3 mps 594 mmHg 43%
    20:00 +16°C° 0 mm 3 mps 594 mmHg 49%
    21:00 +16°C° 0 mm 3 mps 594 mmHg 42%
    22:00 +15°C° 0 mm 2 mps 594 mmHg 35%
    23:00 +15°C° 0 mm 2 mps 594 mmHg 27%

    26 May, Sunday

    Time Temperature Precipitation Wind Pressure Humidity
    00:00 +14°C° 0 mm 3 mps 594 mmHg 23%
    01:00 +14°C° 0 mm 3 mps 594 mmHg 18%
    02:00 +14°C° 0 mm 4 mps 593 mmHg 13%
    03:00 +13°C° 0 mm 4 mps 593 mmHg 12%
    04:00 +13°C° 0 mm 4 mps 593 mmHg 11%
    05:00 +13°C° 0 mm 5 mps 593 mmHg 10%
    06:00 +13°C° 0 mm 5 mps 594 mmHg 12%
    07:00 +14°C° 0 mm 5 mps 595 mmHg 13%
    08:00 +15°C° 0 mm 5 mps 595 mmHg 14%
    09:00 +19°C° 0 mm 5 mps 596 mmHg 12%
    10:00 +23°C° 0 mm 5 mps 597 mmHg 9%
    11:00 +27°C° 0 mm 5 mps 598 mmHg 6%
    12:00 +28°C° 0 mm 6 mps 598 mmHg 6%
    13:00 +30°C° 0 mm 6 mps 598 mmHg 6%
    14:00 +32°C° 0 mm 7 mps 597 mmHg 5%
    15:00 +29°C° 0 mm 6 mps 597 mmHg 11%
    16:00 +27°C° 0 mm 5 mps 596 mmHg 16%
    17:00 +25°C° 0 mm 4 mps 595 mmHg 22%
    18:00 +22°C° 0 mm 3 mps 595 mmHg 30%
    19:00 +19°C° 0 mm 3 mps 595 mmHg 38%
    20:00 +16°C° 0 mm 2 mps 594 mmHg 46%
    21:00 +16°C° 0 mm 2 mps 594 mmHg 45%
    22:00 +15°C° 0 mm 2 mps 595 mmHg 45%
    23:00 +15°C° 0 mm 2 mps 595 mmHg 44%

    27 May, Monday

    Time Temperature Precipitation Wind Pressure Humidity
    00:00 +15°C° 0 mm 2 mps 595 mmHg 42%
    01:00 +15°C° 0 mm 2 mps 595 mmHg 41%
    02:00 +15°C° 0 mm 2 mps 594 mmHg 39%
    03:00 +14°C° 0 mm 2 mps 594 mmHg 37%
    04:00 +14°C° 0 mm 2 mps 594 mmHg 35%
    05:00 +13°C° 0 mm 2 mps 594 mmHg 32%
    06:00 +14°C° 0 mm 2 mps 595 mmHg 31%
    07:00 +16°C° 0 mm 3 mps 596 mmHg 30%
    08:00 +17°C° 0 mm 3 mps 597 mmHg 29%
    09:00 +20°C° 0 mm 5 mps 598 mmHg 23%
    10:00 +23°C° 0 mm 8 mps 598 mmHg 17%
    11:00 +27°C° 0 mm 10 mps 599 mmHg 11%
    12:00 +28°C° 0 mm 10 mps 599 mmHg 10%
    13:00 +29°C° 0 mm 10 mps 598 mmHg 9%
    14:00 +31°C° 0 mm 11 mps 598 mmHg 8%
    15:00 +28°C° 0 mm 9 mps 597 mmHg 13%
    16:00 +27°C° 0 mm 7 mps 597 mmHg 18%
    17:00 +25°C° 0 mm 5 mps 596 mmHg 22%
    18:00 +22°C° 0 mm 4 mps 596 mmHg 31%
    19:00 +19°C° 0 mm 3 mps 596 mmHg 40%
    20:00 +17°C° 0 mm 3 mps 595 mmHg 49%
    21:00 +16°C° 0 mm 2 mps 595 mmHg 46%
    22:00 +16°C° 0 mm 2 mps 595 mmHg 44%
    23:00 +15°C° 0 mm 2 mps 595 mmHg 42%

    28 May, Tuesday

    Time Temperature Precipitation Wind Pressure Humidity
    00:00 +15°C° 0 mm 2 mps 595 mmHg 36%
    01:00 +13°C° 0 mm 3 mps 595 mmHg 30%
    02:00 +13°C° 0 mm 3 mps 595 mmHg 25%
    03:00 +13°C° 0 mm 3 mps 595 mmHg 22%
    04:00 +13°C° 0 mm 3 mps 595 mmHg 19%
    05:00 +12°C° 0 mm 3 mps 595 mmHg 16%
    06:00 +13°C° 0 mm 3 mps 596 mmHg 17%
    07:00 +14°C° 0 mm 3 mps 597 mmHg 19%
    08:00 +16°C° 0 mm 3 mps 598 mmHg 21%
    09:00 +19°C° 0 mm 3 mps 599 mmHg 18%
    10:00 +21°C° 0 mm 4 mps 600 mmHg 14%
    11:00 +25°C° 0 mm 4 mps 600 mmHg 11%
    12:00 +26°C° 0 mm 4 mps 600 mmHg 11%
    13:00 +27°C° 0 mm 4 mps 600 mmHg 12%
    14:00 +28°C° 0 mm 4 mps 600 mmHg 12%
    15:00 +26°C° 0 mm 4 mps 599 mmHg 25%
    16:00 +22°C° 0 mm 4 mps 598 mmHg 38%
    17:00 +20°C° 0 mm 4 mps 597 mmHg 50%
    18:00 +19°C° 0.1 mm 3 mps 597 mmHg 61%
    19:00 +17°C° 0.1 mm 3 mps 597 mmHg 72%
    20:00 +15°C° 0.1 mm 2 mps 597 mmHg 83%
    21:00 +15°C° 0.1 mm 2 mps 597 mmHg 85%
    22:00 +15°C° 0.1 mm 2 mps 598 mmHg 87%
    23:00 +15°C° 0.1 mm 2 mps 598 mmHg 90%
    Show more